AO-07 1 07530U 74089B 17124.51548774 -.00000019 00000-0 15572-3 0 9993 2 07530 101.6264 094.0677 0012456 048.2076 059.9337 12.53626779943151 UO-11 1 14781U 84021B 17124.57744912 .00000109 00000-0 19765-4 0 9992 2 14781 097.7020 171.8879 0008151 353.2186 006.8916 14.82888270762881 LO-19 1 20442U 90005G 17124.56985502 .00000002 00000-0 16758-4 0 9994 2 20442 098.5734 061.5327 0010602 278.0263 081.9718 14.32857880425316 HUBBLE 1 20580U 90037B 17124.28122685 .00000566 00000-0 23980-4 0 9996 2 20580 028.4699 297.6383 0002907 062.2431 318.7947 15.08754670283565 MET-2/21 1 22782U 93055A 17124.36008604 .00000089 00000-0 67195-4 0 9994 2 22782 082.5512 058.3645 0022021 190.5537 286.2847 13.83800813195360 AO-27 1 22825U 93061C 17124.46148334 .00000015 00000-0 23505-4 0 9991 2 22825 098.8081 089.5155 0009536 097.9861 262.2404 14.29994549230888 IO-26 1 22826U 93061D 17124.50257505 .00000025 00000-0 27019-4 0 9993 2 22826 098.8023 089.6442 0010094 089.4819 270.7520 14.30323033231087 FO-29 1 24278U 96046B 17124.61134029 -.00000018 00000-0 14515-4 0 9999 2 24278 098.5702 013.6564 0351394 090.3024 273.8380 13.53075920022734 NOAA-15 1 25338U 98030A 17124.56551094 .00000042 00000-0 36590-4 0 9994 2 25338 098.7833 135.3865 0010056 339.5711 020.5065 14.25789860986521 GO-32 1 25397U 98043D 17124.40844827 -.00000002 00000-0 18225-4 0 9997 2 25397 098.6068 067.6757 0002303 108.5072 251.6357 14.23620952977347 ISS 1 25544U 98067A 17124.57892936 .00002511 00000-0 45435-4 0 9998 2 25544 051.6414 255.6645 0005819 124.6791 322.8296 15.53963064054978 NO-44 1 26931U 01043C 17124.61846736 -.00000038 00000-0 17332-4 0 9997 2 26931 067.0514 203.6091 0007960 271.9422 088.0767 14.30458207814043 SO-50 1 27607U 02058C 17124.62056017 .00000045 00000-0 27058-4 0 9994 2 27607 064.5556 258.6903 0031455 118.6516 241.7756 14.75318159772556 CO-55 1 27844U 03031E 17124.59190009 .00000071 00000-0 51800-4 0 9996 2 27844 098.6904 134.2315 0010926 111.2630 248.9716 14.22033127718080 CO-57 1 27848U 03031J 17124.57986416 .00000057 00000-0 45932-4 0 9996 2 27848 098.6999 134.4598 0010742 119.5723 240.6526 14.21648250717976 RS-22 1 27939U 03042A 17124.57879477 .00000100 00000-0 26474-4 0 9996 2 27939 097.9325 270.7418 0013117 011.0681 052.0529 14.66555963726789 NOAA-18 1 28654U 05018A 17124.55647613 .00000037 00000-0 45693-4 0 9992 2 28654 099.1854 145.6983 0014191 189.8455 170.2439 14.12335396616001 CO-58 1 28895U 05043F 17124.41314919 .00000181 00000-0 43653-4 0 9996 2 28895 097.8601 288.7351 0015404 283.1713 076.7771 14.63382753613858 Falconsat-3 1 30776U 07006E 17124.04956213 .00002588 00000-0 83287-4 0 9996 2 30776 035.4374 346.5795 0004372 287.4732 072.5515 15.32032265561487 CO-65 1 32785U 08021C 17124.46197697 .00000262 00000-0 34269-4 0 9998 2 32785 097.5699 150.7240 0011980 318.7078 041.3232 14.87861980488326 AAUSAT2 1 32788U 08021F 17124.56082295 .00000450 00000-0 47547-4 0 9991 2 32788 097.5629 162.1814 0010331 277.2067 082.7979 14.93816286489067 DO-64 1 32789U 08021G 17124.60310292 .00000969 00000-0 73053-4 0 9994 2 32789 097.5626 183.7484 0011264 246.1718 113.8328 15.04730375490211 CO-66 1 32791U 08021J 17124.33008954 .00000301 00000-0 36510-4 0 9993 2 32791 097.5673 154.8261 0012007 302.8362 057.1700 14.90183366488610 RS-30 1 32953U 08025A 17124.58009196 .00000030 00000-0 14557-3 0 9998 2 32953 082.5016 266.7654 0018925 023.8346 336.3606 12.43076333406002 PRISM 1 33493U 09002B 17124.61036991 .00000777 00000-0 75598-4 0 9992 2 33493 098.1743 005.1929 0014347 223.6726 136.3369 14.95606634449269 NOAA-19 1 33591U 09005A 17124.55355867 .00000120 00000-0 90535-4 0 9993 2 33591 099.0886 090.7687 0014713 038.4047 321.8168 14.12176497424238 TISAT-1 1 36799U 10035E 17124.57115043 .00000491 00000-0 56448-4 0 9999 2 36799 098.0555 246.4318 0013861 109.1179 251.1540 14.90348531369085 JUGNU 1 37839U 11058B 17124.00144745 .00000326 00000-0 31977-4 0 9997 2 37839 019.9624 358.3957 0018925 056.7175 041.6649 14.12581070287331 SRMSAT 1 37841U 11058D 17124.14517069 .00000312 00000-0 26555-4 0 9999 2 37841 019.9730 038.2988 0011712 317.5835 153.5692 14.10572761287053 AO-71 1 37854U 11061E 17124.27805508 .00001585 00000-0 92703-4 0 9990 2 37854 101.7089 335.5662 0167995 204.8992 154.4046 15.03916856299880 HRBE 1 37855U 11061F 17124.45729447 .00002123 00000-0 11896-3 0 9990 2 37855 101.7225 333.6683 0181211 210.6594 148.3929 15.02877353299750 ALMASAT-1 1 38078U 12006B 17124.62390362 .00013555 36493-5 16005-3 0 9995 2 38078 069.4389 249.4211 0316539 354.5906 005.1863 15.20525156278168 HORYU-2 1 38340U 12025D 17124.54547442 .00000274 00000-0 48603-4 0 9996 2 38340 098.3766 126.9307 0012999 072.9483 287.3148 14.75313372256440 RS-40 1 38735U 12041C 17124.56975981 .00000014 00000-0 28675-4 0 9996 2 38735 082.4773 351.3898 0017428 121.2587 239.0202 12.42574145216253 BEESAT-3 1 39134U 13015E 17124.13499231 .00001387 00000-0 77581-4 0 9998 2 39134 064.8681 008.6345 0033764 280.0047 079.7269 15.17662309222416 BEESAT-2 1 39136U 13015G 17124.14745146 .00001181 00000-0 72788-4 0 9996 2 39136 064.8713 018.6754 0030777 290.2196 069.5620 15.14974919222214 ZACUBE-1 1 39417U 13066B 17124.57300786 .00000260 00000-0 39293-4 0 9999 2 39417 097.6341 168.9198 0060589 053.6785 307.0001 14.80683263186322 TRITON-1 1 39427U 13066M 17124.55079843 .00000239 00000-0 46064-4 0 9995 2 39427 097.6401 142.8284 0115719 128.1091 233.0617 14.67433884184451 GOMX-1 1 39430U 13066Q 17124.54996410 .00000220 00000-0 48848-4 0 9998 2 39430 097.6648 126.9163 0151957 180.2770 179.8372 14.58843576183383 LO-74 1 39440U 13066AA 17124.57028789 .00000281 00000-0 46245-4 0 9993 2 39440 097.6328 158.4392 0082399 082.1578 278.8976 14.75424320184463 AO-73 1 39444U 13066AE 17124.57413164 .00000349 00000-0 49732-4 0 9991 2 39444 097.6356 169.9188 0059704 050.6881 309.9604 14.81409396184567 SPROUT 1 39770U 14029E 17124.53577286 .00001202 00000-0 14314-3 0 9991 2 39770 097.8698 224.3422 0010816 109.0408 251.1981 14.86163183159656 DUCHIFAT-1 1 40021U 14033M 17124.57644289 .00000569 00000-0 65090-4 0 9992 2 40021 097.9206 037.6749 0014640 085.0506 275.2382 14.89839618156106 NANOSATCBR1 1 40024U 14033Q 17124.55887869 .00000461 00000-0 54761-4 0 9990 2 40024 097.9168 036.6129 0013921 085.9553 274.3255 14.89171952155534 EO-79 1 40025U 14033R 17124.31351005 .00000313 00000-0 39823-4 0 9991 2 40025 097.9151 035.4736 0014098 089.2882 270.9950 14.88383468155963 DTUSAT-2 1 40030U 14033W 17124.44213720 .00000315 00000-0 40343-4 0 9993 2 40030 097.9118 034.7598 0013543 083.8922 276.3836 14.88007847155944 EO-80 1 40032U 14033Y 17124.48243731 .00000312 00000-0 40058-4 0 9994 2 40032 097.9126 034.8068 0013517 084.1205 276.1552 14.87942724155424 ANTELSAT 1 40034U 14033AA 17124.62526257 .00000272 00000-0 48180-4 0 9998 2 40034 097.8652 009.8934 0060564 073.3380 287.4465 14.73669243153974 VELOX-1 1 40057U 14034E 17124.53738930 .00000538 00000-0 83733-4 0 9995 2 40057 098.1854 224.1048 0010886 190.8041 169.2935 14.77086484153317 DAURIA DX 1 1 40071U 14037C 17124.55371735 .00000231 00000-0 37241-4 0 9995 2 40071 098.3326 233.9000 0008196 184.4182 175.6960 14.81000750152518 UKUBE-1 1 40074U 14037F 17124.51802731 .00000491 00000-0 66892-4 0 9991 2 40074 098.3402 237.4865 0004442 177.2448 182.8784 14.83464003152701 HODOYOSHI-1 1 40299U 14070B 17124.47016497 .00001004 00000-0 46734-4 0 9992 2 40299 097.4029 207.8730 0011717 243.2341 172.5605 15.22178643138298 CHUBUSAT-1 1 40300U 14070C 17124.53365439 .00001087 00000-0 52293-4 0 9993 2 40300 097.3956 205.2256 0018993 254.0480 202.1761 15.20770614138153 QSAT-EOS 1 40301U 14070D 17124.50953470 .00002137 00000-0 93105-4 0 9993 2 40301 097.3897 205.1400 0026291 249.8375 204.7948 15.23003745138188 FIREBIRD FU3 1 40377U 15003B 17124.36069471 .00003344 00000-0 14510-3 0 9999 2 40377 099.1214 299.5922 0137531 147.2539 213.7308 15.15133630124366 FIREBIRD FU4 1 40378U 15003C 17124.55168088 .00003660 00000-0 15812-3 0 9992 2 40378 099.1217 299.8553 0137735 146.5334 214.4692 15.15158409124392 GRIFEX 1 40379U 15003D 17124.59887133 .00002287 00000-0 10621-3 0 9993 2 40379 099.1229 297.8756 0143317 153.3685 207.4996 15.12765527124286 NO-84 1 40654U 15025D 17124.30078626 .00006693 00000-0 12888-3 0 04370 2 40654 054.9951 072.6479 0185563 154.5706 206.4544 15.32786900073168 NO-83 1 40655U 15025E 17124.33440618 .00011390 00000-0 17830-3 0 04886 2 40655 054.9826 050.9184 0154462 166.3906 194.1362 15.41895998073450 DEORBITSAIL 1 40719U 15032E 17124.60032895 .00000458 00000-0 73861-4 0 9996 2 40719 097.9852 018.8929 0015181 286.0927 073.8611 14.76011060097895 NUDT-PHONESAT 1 40900U 15049B 17124.57081270 .00002722 00000-0 13236-3 0 9998 2 40900 097.4440 133.1191 0014798 025.3520 334.8437 15.19172797089837 XW-2A 1 40903U 15049E 17124.61284511 .00002410 00000-0 65359-4 0 9997 2 40903 097.4250 149.7781 0016632 065.7669 294.5312 15.38530590090946 XW-2C 1 40906U 15049H 17124.56812503 .00000917 00000-0 53294-4 0 9997 2 40906 097.4553 130.9326 0015594 012.3556 347.8055 15.14455285089632 XW-2D 1 40907U 15049J 17124.55440985 .00000969 00000-0 56001-4 0 9994 2 40907 097.4522 130.6927 0014914 010.9014 349.2538 15.14552667089635 LILACSAT-2 1 40908U 15049K 17124.57432266 .00000535 00000-0 33802-4 0 9993 2 40908 097.4625 130.5287 0016362 007.8938 352.2547 15.13069496089576 XW-2F 1 40910U 15049M 17124.58140560 .00001436 00000-0 79377-4 0 9998 2 40910 097.4544 131.3340 0015674 008.4795 351.6699 15.15395210089671 XW-2B 1 40911U 15049N 17124.55944696 .00000957 00000-0 55393-4 0 9997 2 40911 097.4566 131.0514 0014824 011.2636 348.8924 15.14516976089535 DCBB 1 40912U 15049P 17124.44482381 .00001841 00000-0 95007-4 0 9993 2 40912 097.4518 132.9132 0015691 001.7340 135.8396 15.17481062089658 TW-1C 1 40926U 15051B 17124.47370891 .00007775 00000-0 18345-3 0 9997 2 40926 097.2342 164.3818 0010895 336.5166 130.8762 15.42096856090185 TW-1A 1 40928U 15051D 17124.37852230 .00004068 00000-0 11878-3 0 9996 2 40928 097.2313 160.9800 0012983 004.2762 116.7396 15.35804710089978 IO-86 1 40931U 15052B 17124.33905179 .00000696 00000-0 79039-5 0 9996 2 40931 005.9972 185.3552 0013713 341.8861 018.0786 14.76525543086473 GomX-3 1 40949U 98067HA 16292.18357804 .08527750 12374-4 77882-3 0 9992 2 40949 51.6055 106.7696 0006699 286.1344 73.8944 16.38002265 59645 LQSat 1 40958U 15057A 17124.50022200 .00000082 00000-0 20579-4 0 9997 2 40958 097.9796 200.5773 0017546 202.3682 157.6767 14.72960868084692 AO-85 1 40967U 15058D 17124.24671712 .00000410 00000-0 66659-4 0 04716 2 40967 064.7787 352.1596 0172295 094.2516 267.8295 14.75398087070638 ATHENOXAT-1 1 41168U 15077C 17124.37674571 .00002437 00000-0 10103-3 0 9999 2 41168 014.9881 129.4263 0012571 127.6497 275.1949 15.11451719076401 ChubuSat-2 1 41338U 16012B 17124.15864678 .00000442 00000-0 28068-4 0 9997 2 41338 031.0044 031.8810 0013912 343.0969 016.9202 14.99715642066374 ChubuSat-3 1 41339U 16012C 17124.15946757 .00000472 00000-0 30302-4 0 9994 2 41339 031.0118 031.0923 0013624 347.4806 012.5492 14.99923257066356 Horyu-4 1 41340U 16012D 17124.08543445 .00000695 00000-0 46982-4 0 9993 2 41340 031.0063 029.3455 0014162 356.6206 003.4332 15.00552839066383 OUFTI-1 1 41458U 16025C 17124.64128046 .00003381 00000-0 18361-3 0 9999 2 41458 098.1890 159.7140 0175598 075.2894 286.7717 15.02991367056042 e-st@r-II 1 41459U 16025D 17124.59120072 .00002065 00000-0 11398-3 0 9996 2 41459 098.1893 159.6280 0176784 075.5723 286.5046 15.02833434056023 AAUSAT4 1 41460U 16025E 17124.54687207 .00003721 00000-0 20138-3 0 9993 2 41460 098.1840 159.6595 0170469 074.4928 287.5033 15.03672307056034 MinXSS 1 41474U 98067HU 17124.60217785 .02959681 12029-4 93599-3 0 9997 2 41474 051.6471 213.8144 0009512 334.7787 025.2768 16.25511121055471 CADRE 1 41475U 98067HV 17003.74787607 .12518598 12537-4 55989-3 0 9998 2 41475 51.6110 110.0165 0004040 312.3134 47.7551 16.43344525 36494 NODES 1 1 41477U 98067HX 17124.55542905 .00046200 00000-0 27343-3 0 9997 2 41477 051.6286 229.2657 0004686 312.9194 047.1413 15.77594926055172 NODES 2 1 41478U 98067HY 17124.45798690 .00038551 00000-0 23303-3 0 9993 2 41478 051.6322 230.1230 0004420 314.7667 045.2973 15.77203852055156 LO-87 1 41557U 16033B 17124.43547894 .00001619 00000-0 63974-4 0 9994 2 41557 097.4645 203.9537 0015087 156.1753 204.0187 15.26894083051753 NuSat2 1 41558U 16033C 17124.39931776 .00001579 00000-0 62683-4 0 9997 2 41558 097.4672 203.9639 0014589 154.9280 205.2670 15.26770432051744 Lapan A3 1 41603U 16040E 17124.57906075 .00000231 00000-0 14200-4 0 9996 2 41603 097.4640 187.0718 0012252 221.9062 244.3045 15.19324308048035 Swayam 1 41607U 16040J 17124.37195225 .00001693 00000-0 80260-4 0 9997 2 41607 097.4643 187.0778 0013310 224.6453 135.3712 15.20606910047941 Pratham 1 41783U 16059A 17124.17885786 .00000072 00000-0 23505-4 0 9997 2 41783 098.1708 185.9977 0032394 299.9611 059.8376 14.62828302032168 AlSat 1N 1 41789U 16059G 17124.40877475 .00000143 00000-0 36532-4 0 9998 2 41789 098.1704 186.6415 0027216 293.9977 065.8378 14.64036600032209 ScatSat 1 41790U 16059H 17124.17175342 -.00000004 00000-0 98194-5 0 9998 2 41790 098.0695 176.0718 0009980 284.3683 075.6404 14.50104959031884 TY-1 1 41844U 16066D 17124.56224185 .00001391 00000-0 63892-4 0 9994 2 41844 097.4059 132.3795 0017273 037.0864 077.2166 15.21937006026703 CAS-2T 1 41845U 16066E 17124.41338564 .00000259 00000-0 49658-4 0 9992 2 41845 098.7795 138.9935 0367176 018.3470 343.0572 14.37740863025206 Pegasus-1 1 41846U 16066F 17124.58392798 -.00001863 00000-0 -27276-3 0 9995 2 41846 098.7823 138.9952 0369655 019.0407 342.4182 14.36976315025213 STARS-C 1 41895U 98067KR 17124.60351685 .00021115 00000-0 26460-3 0 9997 2 41895 051.6387 253.0225 0003904 157.6055 202.5109 15.59708155021180 Tancredo 1 1 41931U 98067KT 17124.56708415 .00040090 00000-0 42247-3 0 9994 2 41931 051.6373 252.0193 0004303 103.5554 256.5921 15.63839218016766 ITF-2 1 41932U 98067KU 17124.60963646 .00012474 00000-0 16855-3 0 9990 2 41932 051.6403 253.8173 0005537 104.7741 255.3866 15.58156758016747 AOBA-V3LOX3 1 41935U 98067KX 17124.54291881 .00013422 00000-0 17951-3 0 9993 2 41935 051.6403 254.1205 0004833 108.2964 251.8554 15.58356660016833 OSNSAT 1 41939U 98067KZ 17124.57409412 .00028019 00000-0 32848-3 0 9991 2 41939 051.6387 252.8221 0005694 106.7999 253.3620 15.61270705016119 EO-88 1 42017U 17008BX 17124.54239056 .00001888 00000-0 83796-4 0 9991 2 42017 097.4990 186.0781 0007160 028.3005 331.8619 15.22806666011844 /EX
